This is the latest recevied weather packets stored in our database for station/object VA3WWD-2. If no packets are shown the sender has not sent any weather packets the latest 10 day(s).
| Time | Temp. | Humidity | Pressure | Rain* | Wind** | Luminosity | Snow |
|---|---|---|---|---|---|---|---|
| 1777746063 | 2.78° C | 55% | - | 0 mm | 0 m/s | - | - |
| 1777745166 | 3.33° C | 45% | - | 0 mm | 0 m/s | - | - |
| 1777744868 | 3.89° C | 47% | - | 0 mm | 0 m/s | - | - |
| 1777744567 | 3.33° C | 47% | - | 0 mm | 0 m/s | - | - |
| 1777743971 | 3.89° C | 48% | - | 0 mm | 0 m/s | - | - |
| 1777743074 | 3.89° C | 45% | - | 0 mm | 0 m/s | - | - |
| 1777742177 | 3.89° C | 43% | - | 0 mm | 0 m/s | - | - |
| 1777740979 | 4.44° C | 37% | - | 0 mm | 0 m/s | - | - |
| 1777740681 | 3.89° C | 37% | - | 0 mm | 0 m/s | - | - |
| 1777739185 | 3.89° C | 40% | - | 0 mm | 0 m/s | - | - |
| 1777738887 | 5° C | 40% | - | 0 mm | 0 m/s | - | - |
| 1777738589 | 4.44° C | 40% | - | 0 mm | 0 m/s | - | - |
| 1777738288 | 3.89° C | 42% | - | 0 mm | 0 m/s | - | - |
| 1777737990 | 3.89° C | 47% | - | 0 mm | 0 m/s | - | - |
| 1777737692 | 2.78° C | 50% | - | 0 mm | 0 m/s | - | - |
| 1777735597 | 3.33° C | 58% | - | 0 mm | 0 m/s | - | - |
| 1777735300 | 2.22° C | 58% | - | 0 mm | 0 m/s | - | - |
| 1777735001 | 3.33° C | 62% | - | 0 mm | 0 m/s | - | - |
| 1777734402 | 2.78° C | 64% | - | 0 mm | 0 m/s | - | - |
| 1777734104 | 2.22° C | 65% | - | 0 mm | 0 m/s | - | - |
| 1777733803 | 2.22° C | 64% | - | 0 mm | 0 m/s | - | - |
| 1777733505 | 1.11° C | 67% | - | 0 mm | 0 m/s | - | - |
| 1777733207 | 1.11° C | 68% | - | 0 mm | 0 m/s | - | - |
| 1777732906 | 1.11° C | 70% | - | 0 mm | 0 m/s | - | - |
| 1777732608 | 1.11° C | 72% | - | 0 mm | 0 m/s | - | - |
* Rain latest hour (hover to see other rain measurements)
** Current wind speed in m/s (hover to see current wind gust speed)